EW9043 Weather Reports


Display with metric or nautical units.
time (UTC)temp
F
wind
direction
speed
MPH
gust
MPH
rain 1hr
in
rain 24hr
in
rain mn
in
humidity
%
barometer
mb
20181213034553 36 207 0.0 0.0 0.00 0.00 0.00 70 1015.8
20181213033114 36 207 0.0 0.0 0.00 0.00 0.00 70 1016.0
20181213031601 36 207 0.0 0.0 0.00 0.00 0.00 70 1016.1
20181213030118 36 207 0.0 0.0 0.00 0.00 0.00 70 1016.3
20181213024629 35 207 0.0 0.0 0.00 0.00 0.00 71 1016.5
20181213023043 36 207 0.0 0.0 0.00 0.00 0.00 70 1016.6
20181213021539 36 207 0.0 0.0 0.00 0.00 0.00 69 1016.7
20181213020030 36 207 0.0 0.0 0.00 0.00 0.00 68 1016.8
20181213014526 37 207 0.0 0.0 0.00 0.00 0.00 66 1017.0
20181213013021 37 207 0.0 0.0 0.00 0.00 0.00 63 1017.0
20181213011556 37 208 0.0 0.0 0.00 0.00 0.00 64 1017.1
20181213010031 37 207 0.0 0.0 0.00 0.00 0.00 65 1017.1
20181213004540 37 207 0.0 0.0 0.00 0.00 0.00 64 1017.0
20181213003043 37 207 0.0 0.0 0.00 0.00 0.00 65 1017.0
20181213001530 37 207 0.0 0.0 0.00 0.00 0.00 65 1017.1
20181213000014 37 207 0.0 0.0 0.00 0.00 0.00 65 1017.0
20181212234510 37 207 0.0 0.0 0.00 0.00 0.00 65 1017.1
20181212233003 37 208 0.0 0.0 0.00 0.00 0.00 65 1017.2
20181212231504 37 207 0.0 0.0 0.00 0.00 0.00 65 1017.4
20181212230244 37 207 0.0 0.0 0.00 0.00 0.00 66 1017.5
20181212224605 36 207 0.0 0.0 0.00 0.00 0.00 67 1017.7
20181212223206 36 207 0.0 0.0 0.00 0.00 0.00 68 1017.8
20181212221641 37 207 0.0 0.0 0.00 0.00 0.00 64 1017.9
20181212220137 38 207 0.0 0.0 0.00 0.00 0.00 62 1017.8
20181212214557 38 207 0.0 0.0 0.00 0.00 0.00 62 1017.7
20181212213134 38 207 0.0 0.0 0.00 0.00 0.00 62 1017.6
20181212211724 37 207 0.0 0.0 0.00 0.00 0.00 65 1017.7
20181212210138 38 208 0.0 0.0 0.00 0.00 0.00 64 1017.7
20181212204702 38 207 0.0 0.0 0.00 0.00 0.00 63 1017.6
20181212203133 38 207 0.0 0.0 0.00 0.00 0.00 64 1017.8
20181212201646 38 207 0.0 0.0 0.00 0.00 0.00 65 1017.9
20181212200135 38 207 0.0 0.0 0.00 0.00 0.00 65 1017.8
20181212194745 38 207 0.0 0.0 0.00 0.00 0.00 64 1017.9
20181212193156 39 207 0.0 0.0 0.00 0.00 0.00 63 1017.9
20181212191702 39 207 0.0 0.0 0.00 0.00 0.00 63 1018.1
20181212190149 39 207 0.0 0.0 0.00 0.00 0.00 62 1018.0
20181212184613 39 207 0.0 0.0 0.00 0.00 0.00 62 1018.1
20181212183246 40 208 0.0 0.0 0.00 0.00 0.00 62 1018.0
20181212181608 40 208 0.0 0.0 0.00 0.00 0.00 59 1017.9
20181212180052 39 207 0.0 0.0 0.00 0.00 0.00 63 1017.9
20181212174654 40 207 0.0 0.0 0.00 0.00 0.00 61 1017.9
20181212173122 40 207 0.0 0.0 0.00 0.00 0.00 62 1017.9
20181212171604 40 208 0.0 0.0 0.00 0.00 0.00 59 1017.9
20181212170105 40 207 0.0 0.0 0.00 0.00 0.00 57 1017.9
20181212164616 40 207 0.0 0.0 0.00 0.00 0.00 57 1018.0
20181212163137 40 207 0.0 0.0 0.00 0.00 0.00 55 1017.9
20181212161628 40 207 0.0 0.0 0.00 0.00 0.00 58 1017.9
20181212160112 41 207 0.0 0.0 0.00 0.00 0.00 56 1017.7
20181212154619 41 207 0.0 0.0 0.00 0.00 0.00 55 1017.8
20181212153108 41 207 0.0 0.0 0.00 0.00 0.00 55 1017.9
20181212151619 41 207 0.0 0.0 0.00 0.00 0.00 56 1018.1
20181212150110 41 207 0.0 0.0 0.00 0.00 0.00 55 1018.2
20181212144606 41 207 0.0 0.0 0.00 0.00 0.00 54 1018.2
20181212143047 41 207 0.0 0.0 0.00 0.00 0.00 54 1018.2
20181212141656 41 207 0.0 0.0 0.00 0.00 0.00 54 1018.2
20181212140138 41 208 0.0 0.0 0.00 0.00 0.00 52 1018.3
20181212134611 41 208 0.0 0.0 0.00 0.00 0.00 51 1018.3
20181212133032 41 207 1.0 0.0 0.00 0.00 0.00 49 1018.4
20181212131558 41 207 1.0 0.0 0.00 0.00 0.00 53 1018.5
20181212130051 41 206 0.0 0.0 0.00 0.00 0.00 54 1018.6
20181212124617 41 207 0.0 0.0 0.00 0.00 0.00 54 1018.7
20181212123108 41 207 0.0 0.0 0.00 0.00 0.00 52 1018.8
20181212121538 41 209 1.0 0.0 0.00 0.00 0.00 52 1019.0
20181212120120 41 210 0.0 0.0 0.00 0.00 0.00 52 1019.0
20181212114556 41 210 1.0 0.0 0.00 0.00 0.00 52 1019.2
20181212113144 41 210 2.0 0.0 0.00 0.00 0.00 51 1019.4
20181212111546 41 213 1.0 0.0 0.00 0.00 0.00 51 1019.6
20181212110108 40 216 1.0 0.0 0.00 0.00 0.00 51 1019.5
20181212104558 40 214 0.0 0.0 0.00 0.00 0.00 50 1019.6
20181212103035 40 213 0.0 0.0 0.00 0.00 0.00 51 1019.7
20181212101530 40 213 1.0 0.0 0.00 0.00 0.00 50 1019.7
20181212100027 40 213 0.0 0.0 0.00 0.00 0.00 50 1019.7
20181212094546 39 214 0.0 0.0 0.00 0.00 0.00 50 1019.9
20181212093026 39 213 0.0 0.0 0.00 0.00 0.00 51 1019.9
20181212091605 38 213 1.0 0.0 0.00 0.00 0.00 52 1019.9
20181212090024 38 213 1.0 0.0 0.00 0.00 0.00 53 1019.8
20181212084543 38 213 1.0 0.0 0.00 0.00 0.00 55 1019.6
20181212083026 38 213 0.0 0.0 0.00 0.00 0.00 56 1019.5
20181212081513 39 213 0.0 0.0 0.00 0.00 0.00 52 1019.4
20181212080055 39 213 0.0 0.0 0.00 0.00 0.00 51 1019.3
20181212074524 39 214 0.0 0.0 0.00 0.00 0.00 53 1019.2
20181212073014 38 213 0.0 0.0 0.00 0.00 0.00 55 1019.2
20181212071527 39 213 0.0 0.0 0.00 0.00 0.00 53 1019.1
20181212070009 37 213 0.0 0.0 0.00 0.00 0.00 57 1019.0
20181212064509 38 213 0.0 0.0 0.00 0.00 0.00 54 1018.9
20181212063010 38 213 0.0 0.0 0.00 0.00 0.00 54 1018.9
20181212061517 39 213 0.0 0.0 0.00 0.00 0.00 51 1018.8
20181212060014 39 213 0.0 0.0 0.00 0.00 0.00 50 1018.6
20181212054509 39 213 2.0 0.0 0.00 0.00 0.00 52 1018.6
20181212053005 38 213 0.0 0.0 0.00 0.00 0.00 56 1018.7
20181212051709 38 213 0.0 0.0 0.00 0.00 0.00 56 1018.5
20181212050137 38 214 0.0 0.0 0.00 0.00 0.00 55 1018.4
20181212044738 38 213 0.0 0.0 0.00 0.00 0.00 55 1018.4
20181212043213 39 213 0.0 0.0 0.00 0.00 0.00 51 1018.5
20181212041710 39 213 0.0 0.0 0.00 0.00 0.00 51 1018.5
20181212040142 40 213 0.0 0.0 0.00 0.00 0.00 49 1018.4